This demonstration page uses our WeatherBlox Daily Observations layout. Learn more.

38.89511, -77.03637

Hourly Observations for June 9, 2015

Temp ( °F °C ) Dew Point ( °F °C ) Humidity (%) Winds ( mph kmh ) Pressure ( in mb ) Visibility ( mi km ) Precip ( " mm )
12:52 am 00:52 Cloudy 75 24 68 20 78 78 S 14 22 29.8 1009 10 16.09344 0 0
1:52 am 01:52 Cloudy 73 23 66 19 78 78 S 15 24 29.77 1008 10 16.09344 0 0
2:39 am 02:39 Cloudy 73 23 66 19 78 78 S 14 22 29.77 1008 10 16.09344 0 0
2:52 am 02:52 Cloudy 73 23 66 19 78 78 SSW 14 22 29.77 1008 10 16.09344 0 0
3:52 am 03:52 Cloudy 73 23 66 19 78 78 SSW 13 20 29.77 1008 10 16.09344 0 0
4:25 am 04:25 Cloudy 73 23 66 19 78 78 SSW 10 17 29.74 1007 10 16.09344 0 0
4:52 am 04:52 Cloudy 72 22 66 19 83 83 S 13 20 29.74 1007 10 16.09344 0 0
5:52 am 05:52 Mostly Cloudy 72 22 66 19 83 83 SSW 12 19 29.77 1008 10 16.09344 0 0
6:52 am 06:52 Cloudy 72 22 66 19 83 83 SSW 10 17 29.77 1008 10 16.09344 0 0
7:52 am 07:52 Cloudy 73 23 66 19 78 78 SSW 12 19 29.77 1008 10 16.09344 0 0
8:08 am 08:08 Mostly Cloudy 73 23 66 19 78 78 SSW 13 20 29.77 1008 10 16.09344 0 0
8:52 am 08:52 Mostly Cloudy 75 24 66 19 74 74 SW 12 19 29.77 1008 10 16.09344 0 0
9:52 am 09:52 Mostly Cloudy 79 26 66 19 65 65 SW 10 17 29.77 1008 10 16.09344 0 0
10:52 am 10:52 Mostly Cloudy 82 28 66 19 58 58 SW 9 15 29.77 1008 10 16.09344 0 0
11:15 am 11:15 Mostly Cloudy 82 28 63 17 51 51 WSW 17 28 29.77 1008 10 16.09344 0 0
11:52 am 11:52 Mostly Cloudy 84 29 64 18 51 51 WSW 12 19 29.77 1008 10 16.09344 0 0
12:52 pm 12:52 Mostly Cloudy 86 30 61 16 43 43 W 13 20 29.74 1007 10 16.09344 0 0
1:52 pm 13:52 Mostly Cloudy 88 31 61 16 40 40 W 12 19 29.74 1007 10 16.09344 0 0
2:52 pm 14:52 Mostly Cloudy 88 31 57 14 35 35 WNW 13 20 29.74 1007 10 16.09344 0 0
3:52 pm 15:52 Mostly Cloudy 88 31 57 14 35 35 WNW 12 19 29.74 1007 10 16.09344 0 0
4:52 pm 16:52 Mostly Cloudy 88 31 55 13 33 33 W 9 15 29.74 1007 10 16.09344 0 0
5:52 pm 17:52 Mostly Cloudy 88 31 57 14 35 35 WNW 8 13 29.74 1007 10 16.09344 0 0
6:52 pm 18:52 Mostly Cloudy 84 29 57 14 40 40 NNW 14 22 29.77 1008 10 16.09344 0 0
6:54 pm 18:54 Mostly Cloudy 84 29 57 14 40 40 NNW 12 19 29.77 1008 10 16.09344 0 0
7:52 pm 19:52 Mostly Cloudy 82 28 54 12 37 37 NW 9 15 29.77 1008 10 16.09344 0 0
8:52 pm 20:52 Partly Cloudy 81 27 54 12 39 39 NW 15 24 29.8 1009 10 16.09344 0 0
9:52 pm 21:52 Partly Cloudy 81 27 55 13 42 42 NW 9 15 29.83 1010 10 16.09344 0 0
10:52 pm 22:52 Mostly Cloudy 81 27 55 13 42 42 WNW 14 22 29.83 1010 10 16.09344 0 0
11:52 pm 23:52 Mostly Cloudy 79 26 55 13 45 45 NW 12 19 29.83 1010 10 16.09344 0 0

Powered by AerisWeather